| time (UTC) | temp C | wind direction | speed KPH | gust KPH | rain 1hr cm | rain 24hr cm | rain mn cm | humidity % | barometer mb |
| 20260506151108 | 12 | 261 | 0.0 | 0.0 | 0.00 | 0.00 | 0.00 | 88 | 1026.0 |
| 20260506150511 | 12 | 261 | 0.0 | 0.0 | 0.00 | 0.00 | 0.00 | 88 | 1026.0 |
| 20260506150019 | 12 | 261 | 0.0 | 0.0 | 0.00 | 0.00 | 0.00 | 88 | 1026.0 |
| 20260506145507 | 12 | 261 | 0.0 | 4.8 | 0.00 | 0.00 | 0.00 | 88 | 1026.0 |
| 20260506145008 | 12 | 266 | 0.0 | 4.8 | 0.00 | 0.00 | 0.00 | 88 | 1026.0 |
| 20260506144506 | 12 | 265 | 0.0 | 4.8 | 0.00 | 0.00 | 0.00 | 89 | 1026.0 |
| 20260506144009 | 12 | 265 | 0.0 | 4.8 | 0.00 | 0.00 | 0.00 | 89 | 1026.0 |
| 20260506143506 | 12 | 269 | 0.0 | 0.0 | 0.00 | 0.00 | 0.00 | 89 | 1025.9 |
| 20260506143017 | 12 | 269 | 0.0 | 0.0 | 0.00 | 0.00 | 0.00 | 89 | 1025.9 |
| 20260506142502 | 12 | 269 | 0.0 | 0.0 | 0.00 | 0.00 | 0.00 | 88 | 1025.8 |
| 20260506142003 | 12 | 273 | 0.0 | 6.4 | 0.00 | 0.00 | 0.00 | 89 | 1025.7 |
| 20260506141502 | 12 | 205 | 0.0 | 0.0 | 0.00 | 0.00 | 0.00 | 89 | 1025.7 |
| 20260506141103 | 12 | 182 | 0.0 | 6.4 | 0.00 | 0.00 | 0.00 | 89 | 1025.6 |
| 20260506140502 | 12 | 182 | 0.0 | 6.4 | 0.00 | 0.00 | 0.00 | 89 | 1025.6 |
| 20260506140002 | 12 | 269 | 0.0 | 6.4 | 0.00 | 0.00 | 0.00 | 89 | 1025.7 |
| 20260506135501 | 12 | 269 | 0.0 | 6.4 | 0.00 | 0.00 | 0.00 | 89 | 1025.5 |
| 20260506135100 | 12 | 218 | 0.0 | 6.4 | 0.00 | 0.00 | 0.00 | 89 | 1025.5 |
| 20260506134601 | 12 | 277 | 0.0 | 6.4 | 0.00 | 0.00 | 0.00 | 89 | 1025.5 |
| 20260506134059 | 12 | 253 | 0.0 | 0.0 | 0.00 | 0.00 | 0.00 | 89 | 1025.5 |
| 20260506133559 | 12 | 253 | 0.0 | 0.0 | 0.00 | 0.00 | 0.00 | 88 | 1025.5 |
| 20260506133100 | 12 | 253 | 0.0 | 0.0 | 0.00 | 0.00 | 0.00 | 88 | 1025.4 |
| 20260506132557 | 12 | 254 | 0.0 | 0.0 | 0.00 | 0.00 | 0.00 | 88 | 1025.3 |
| 20260506132057 | 12 | 254 | 0.0 | 0.0 | 0.00 | 0.00 | 0.00 | 88 | 1025.3 |
| 20260506131559 | 12 | 254 | 0.0 | 0.0 | 0.00 | 0.00 | 0.00 | 88 | 1025.2 |
| 20260506131057 | 12 | 254 | 0.0 | 4.8 | 0.00 | 0.00 | 0.00 | 88 | 1025.1 |
| 20260506130557 | 12 | 254 | 0.0 | 4.8 | 0.00 | 0.00 | 0.00 | 88 | 1025.2 |
| 20260506130125 | 12 | 254 | 0.0 | 4.8 | 0.00 | 0.00 | 0.00 | 88 | 1025.2 |
| 20260506125559 | 12 | 255 | 0.0 | 0.0 | 0.00 | 0.00 | 0.00 | 88 | 1025.2 |
| 20260506125055 | 12 | 255 | 0.0 | 0.0 | 0.00 | 0.00 | 0.00 | 88 | 1025.1 |
| 20260506124555 | 12 | 255 | 0.0 | 0.0 | 0.00 | 0.00 | 0.00 | 88 | 1025.0 |
| 20260506124055 | 12 | 255 | 0.0 | 0.0 | 0.00 | 0.00 | 0.00 | 88 | 1025.0 |
| 20260506123558 | 12 | 255 | 0.0 | 0.0 | 0.00 | 0.00 | 0.00 | 88 | 1025.0 |
| 20260506123055 | 12 | 255 | 0.0 | 0.0 | 0.00 | 0.00 | 0.00 | 88 | 1025.0 |
| 20260506122555 | 12 | 255 | 0.0 | 0.0 | 0.00 | 0.00 | 0.00 | 88 | 1024.9 |
| 20260506122054 | 12 | 255 | 0.0 | 0.0 | 0.00 | 0.00 | 0.00 | 88 | 1025.0 |
| 20260506121555 | 12 | 255 | 0.0 | 0.0 | 0.00 | 0.00 | 0.00 | 88 | 1024.9 |
| 20260506121054 | 12 | 255 | 0.0 | 0.0 | 0.00 | 0.00 | 0.00 | 88 | 1024.9 |
| 20260506120556 | 12 | 255 | 0.0 | 0.0 | 0.00 | 0.00 | 0.00 | 88 | 1024.9 |
| 20260506120059 | 12 | 255 | 0.0 | 0.0 | 0.00 | 0.00 | 0.00 | 88 | 1024.9 |
| 20260506115555 | 12 | 255 | 0.0 | 0.0 | 0.00 | 0.00 | 0.00 | 88 | 1024.9 |
| 20260506115054 | 12 | 255 | 0.0 | 0.0 | 0.00 | 0.00 | 0.00 | 88 | 1024.8 |
| 20260506114553 | 12 | 255 | 0.0 | 0.0 | 0.00 | 0.00 | 0.00 | 88 | 1024.8 |
| 20260506114053 | 12 | 255 | 0.0 | 0.0 | 0.00 | 0.00 | 0.00 | 88 | 1024.8 |
| 20260506113553 | 12 | 255 | 0.0 | 0.0 | 0.00 | 0.00 | 0.00 | 88 | 1024.8 |
| 20260506113104 | 12 | 255 | 0.0 | 0.0 | 0.00 | 0.00 | 0.00 | 88 | 1024.7 |
| 20260506112554 | 12 | 255 | 0.0 | 0.0 | 0.00 | 0.00 | 0.00 | 88 | 1024.7 |
| 20260506112054 | 12 | 255 | 0.0 | 0.0 | 0.00 | 0.00 | 0.00 | 88 | 1024.7 |
| 20260506111554 | 12 | 255 | 0.0 | 0.0 | 0.00 | 0.00 | 0.00 | 88 | 1024.7 |
| 20260506111052 | 12 | 255 | 0.0 | 0.0 | 0.00 | 0.00 | 0.00 | 88 | 1024.6 |
| 20260506110551 | 12 | 255 | 0.0 | 0.0 | 0.00 | 0.00 | 0.00 | 88 | 1024.6 |
| 20260506110100 | 12 | 255 | 0.0 | 0.0 | 0.00 | 0.00 | 0.00 | 88 | 1024.6 |
| 20260506105550 | 12 | 255 | 0.0 | 0.0 | 0.00 | 0.00 | 0.00 | 88 | 1024.6 |
| 20260506105050 | 12 | 255 | 0.0 | 0.0 | 0.00 | 0.00 | 0.00 | 88 | 1024.5 |
| 20260506104613 | 12 | 255 | 0.0 | 0.0 | 0.00 | 0.00 | 0.00 | 88 | 1024.5 |
| 20260506104049 | 12 | 255 | 0.0 | 0.0 | 0.00 | 0.00 | 0.00 | 88 | 1024.5 |
| 20260506103548 | 12 | 255 | 0.0 | 0.0 | 0.00 | 0.00 | 0.00 | 89 | 1024.4 |
| 20260506103049 | 12 | 255 | 0.0 | 0.0 | 0.00 | 0.00 | 0.00 | 88 | 1024.4 |
| 20260506102548 | 12 | 255 | 0.0 | 0.0 | 0.00 | 0.00 | 0.00 | 88 | 1024.3 |
| 20260506102046 | 12 | 255 | 0.0 | 0.0 | 0.00 | 0.00 | 0.00 | 88 | 1024.2 |
| 20260506101554 | 12 | 255 | 0.0 | 0.0 | 0.00 | 0.00 | 0.00 | 88 | 1024.1 |
| 20260506101046 | 12 | 255 | 0.0 | 0.0 | 0.00 | 0.00 | 0.00 | 88 | 1024.1 |
| 20260506100550 | 12 | 255 | 0.0 | 0.0 | 0.00 | 0.00 | 0.00 | 88 | 1024.1 |
| 20260506100047 | 12 | 255 | 0.0 | 0.0 | 0.00 | 0.00 | 0.00 | 88 | 1024.1 |
| 20260506095550 | 12 | 255 | 0.0 | 0.0 | 0.00 | 0.00 | 0.00 | 88 | 1024.1 |
| 20260506095047 | 12 | 255 | 0.0 | 0.0 | 0.00 | 0.00 | 0.00 | 88 | 1024.1 |
| 20260506094555 | 12 | 255 | 0.0 | 0.0 | 0.00 | 0.00 | 0.00 | 88 | 1024.0 |
| 20260506094047 | 12 | 255 | 0.0 | 0.0 | 0.00 | 0.00 | 0.00 | 88 | 1024.0 |
| 20260506093548 | 12 | 255 | 0.0 | 0.0 | 0.00 | 0.00 | 0.00 | 88 | 1024.0 |
| 20260506093052 | 12 | 255 | 0.0 | 0.0 | 0.00 | 0.00 | 0.00 | 88 | 1024.0 |
| 20260506092545 | 12 | 255 | 0.0 | 0.0 | 0.00 | 0.00 | 0.00 | 88 | 1024.1 |
| 20260506092045 | 12 | 255 | 0.0 | 0.0 | 0.00 | 0.00 | 0.00 | 88 | 1024.1 |
| 20260506091545 | 12 | 255 | 0.0 | 0.0 | 0.00 | 0.00 | 0.00 | 88 | 1024.1 |
| 20260506091047 | 12 | 255 | 0.0 | 0.0 | 0.00 | 0.00 | 0.00 | 87 | 1024.1 |
| 20260506090550 | 12 | 255 | 0.0 | 0.0 | 0.00 | 0.00 | 0.00 | 87 | 1024.1 |
| 20260506090049 | 12 | 255 | 0.0 | 0.0 | 0.00 | 0.00 | 0.00 | 87 | 1024.1 |
| 20260506085545 | 12 | 255 | 0.0 | 0.0 | 0.00 | 0.00 | 0.00 | 87 | 1024.1 |
| 20260506085046 | 12 | 255 | 0.0 | 0.0 | 0.00 | 0.00 | 0.00 | 87 | 1024.1 |
| 20260506084549 | 12 | 255 | 0.0 | 0.0 | 0.00 | 0.00 | 0.00 | 87 | 1024.1 |
| 20260506084046 | 12 | 255 | 0.0 | 0.0 | 0.00 | 0.00 | 0.00 | 87 | 1024.1 |
| 20260506083545 | 12 | 255 | 0.0 | 0.0 | 0.00 | 0.00 | 0.00 | 87 | 1024.1 |
| 20260506083046 | 12 | 255 | 0.0 | 0.0 | 0.00 | 0.00 | 0.00 | 87 | 1024.1 |
| 20260506082547 | 12 | 255 | 0.0 | 0.0 | 0.00 | 0.00 | 0.00 | 87 | 1024.1 |
| 20260506082051 | 12 | 255 | 0.0 | 0.0 | 0.00 | 0.00 | 0.00 | 87 | 1024.1 |
| 20260506081547 | 12 | 255 | 0.0 | 0.0 | 0.00 | 0.00 | 0.00 | 86 | 1024.1 |
| 20260506081045 | 12 | 255 | 0.0 | 8.0 | 0.00 | 0.00 | 0.00 | 86 | 1024.1 |
| 20260506080544 | 12 | 255 | 0.0 | 8.0 | 0.00 | 0.00 | 0.00 | 86 | 1024.1 |
| 20260506073045 | 12 | 290 | 0.0 | 4.8 | 0.00 | 0.00 | 0.00 | 85 | 1023.7 |
| 20260506072540 | 12 | 290 | 0.0 | 3.2 | 0.00 | 0.00 | 0.00 | 85 | 1023.7 |
| 20260506072041 | 12 | 290 | 0.0 | 4.8 | 0.00 | 0.00 | 0.00 | 85 | 1023.6 |
| 20260506071550 | 12 | 290 | 0.0 | 8.0 | 0.00 | 0.00 | 0.00 | 84 | 1023.6 |
| 20260506071038 | 12 | 271 | 0.0 | 6.4 | 0.00 | 0.00 | 0.00 | 84 | 1023.5 |
| 20260506070538 | 12 | 270 | 0.0 | 6.4 | 0.00 | 0.00 | 0.00 | 84 | 1023.5 |
| 20260506062034 | 12 | 276 | 1.6 | 8.0 | 0.00 | 0.00 | 0.00 | 84 | 1023.0 |
| 20260506061535 | 12 | 262 | 0.0 | 8.0 | 0.00 | 0.00 | 0.00 | 84 | 1023.0 |
| 20260506061033 | 12 | 232 | 0.0 | 11.3 | 0.00 | 0.00 | 0.00 | 84 | 1022.9 |
| 20260506060540 | 12 | 222 | 0.0 | 11.3 | 0.00 | 0.00 | 0.00 | 84 | 1022.9 |
| 20260506051037 | 12 | 212 | 4.8 | 17.7 | 0.00 | 0.18 | 0.00 | 82 | 1022.5 |
| 20260506050532 | 12 | 236 | 4.8 | 17.7 | 0.00 | 0.18 | 0.00 | 82 | 1022.5 |
| 20260506045026 | 12 | 199 | 4.8 | 17.7 | 0.00 | 0.18 | 0.00 | 82 | 1022.2 |
| 20260506044527 | 12 | 200 | 0.0 | 17.7 | 0.00 | 0.18 | 0.00 | 82 | 1022.1 |
| 20260506044028 | 12 | 212 | 0.0 | 11.3 | 0.00 | 0.18 | 0.00 | 81 | 1022.1 |
| 20260506043525 | 13 | 296 | 1.6 | 17.7 | 0.00 | 0.18 | 0.00 | 81 | 1022.0 |
| 20260506043026 | 13 | 253 | 3.2 | 17.7 | 0.00 | 0.18 | 0.00 | 81 | 1022.0 |
| 20260506042524 | 13 | 301 | 3.2 | 22.5 | 0.00 | 0.18 | 0.00 | 81 | 1021.9 |
| 20260506042026 | 13 | 209 | 3.2 | 14.5 | 0.00 | 0.18 | 0.00 | 81 | 1021.8 |
| 20260506041530 | 13 | 176 | 0.0 | 20.9 | 0.00 | 0.18 | 0.00 | 80 | 1021.8 |
| 20260506041022 | 13 | 278 | 4.8 | 20.9 | 0.00 | 0.18 | 0.00 | 80 | 1021.5 |
| 20260506040525 | 13 | 234 | 6.4 | 20.9 | 0.00 | 0.18 | 0.00 | 80 | 1021.5 |
| 20260506040026 | 13 | 195 | 4.8 | 19.3 | 0.00 | 0.18 | 0.00 | 80 | 1021.3 |
| 20260506035523 | 13 | 257 | 6.4 | 19.3 | 0.00 | 0.18 | 0.00 | 80 | 1021.3 |
| 20260506035022 | 13 | 205 | 1.6 | 12.9 | 0.00 | 0.18 | 0.00 | 80 | 1021.1 |
| 20260506034524 | 13 | 303 | 4.8 | 14.5 | 0.00 | 0.18 | 0.00 | 79 | 1021.1 |
| 20260506034024 | 13 | 328 | 1.6 | 16.1 | 0.00 | 0.18 | 0.00 | 80 | 1020.9 |
| 20260506033521 | 14 | 174 | 3.2 | 16.1 | 0.00 | 0.18 | 0.00 | 80 | 1020.8 |
| 20260506033027 | 14 | 251 | 1.6 | 17.7 | 0.00 | 0.18 | 0.00 | 80 | 1020.7 |
| 20260506032523 | 14 | 217 | 1.6 | 17.7 | 0.00 | 0.18 | 0.00 | 79 | 1020.6 |
| 20260506032023 | 14 | 213 | 3.2 | 20.9 | 0.00 | 0.18 | 0.00 | 79 | 1020.5 |
| 20260506031525 | 14 | 201 | 4.8 | 20.9 | 0.00 | 0.18 | 0.00 | 79 | 1020.5 |
| 20260506031022 | 14 | 277 | 3.2 | 20.9 | 0.00 | 0.18 | 0.00 | 78 | 1020.4 |
| 20260506030524 | 14 | 254 | 3.2 | 20.9 | 0.00 | 0.18 | 0.00 | 78 | 1020.4 |
| 20260506030025 | 14 | 220 | 9.7 | 20.9 | 0.00 | 0.18 | 0.00 | 78 | 1020.3 |
| 20260506025521 | 14 | 211 | 8.0 | 20.9 | 0.00 | 0.18 | 0.00 | 77 | 1020.2 |
| 20260506025023 | 14 | 195 | 6.4 | 25.7 | 0.00 | 0.18 | 0.00 | 78 | 1020.1 |
| 20260506024521 | 15 | 201 | 4.8 | 25.7 | 0.00 | 0.18 | 0.00 | 78 | 1020.0 |
| 20260506024022 | 15 | 211 | 8.0 | 20.9 | 0.00 | 0.18 | 0.00 | 77 | 1019.9 |
| 20260506023520 | 15 | 212 | 9.7 | 24.1 | 0.00 | 0.18 | 0.00 | 77 | 1019.8 |
| 20260506023020 | 15 | 220 | 9.7 | 22.5 | 0.00 | 0.18 | 0.00 | 77 | 1019.8 |
| 20260506022520 | 15 | 178 | 9.7 | 22.5 | 0.00 | 0.18 | 0.00 | 76 | 1019.8 |
| 20260506022023 | 15 | 155 | 8.0 | 20.9 | 0.00 | 0.18 | 0.00 | 76 | 1019.7 |
| 20260506021520 | 15 | 195 | 4.8 | 24.1 | 0.00 | 0.18 | 0.00 | 75 | 1019.7 |
| 20260506021020 | 15 | 215 | 8.0 | 20.9 | 0.00 | 0.18 | 0.00 | 74 | 1019.7 |
| 20260506020520 | 15 | 217 | 9.7 | 20.9 | 0.00 | 0.18 | 0.00 | 74 | 1019.7 |
| 20260506020023 | 16 | 214 | 8.0 | 20.9 | 0.00 | 0.18 | 0.00 | 73 | 1019.6 |
| 20260506015521 | 16 | 284 | 6.4 | 20.9 | 0.00 | 0.18 | 0.00 | 74 | 1019.6 |
| 20260506015022 | 16 | 181 | 6.4 | 16.1 | 0.00 | 0.18 | 0.00 | 73 | 1019.7 |
| 20260506014522 | 16 | 249 | 4.8 | 22.5 | 0.00 | 0.18 | 0.00 | 73 | 1019.5 |
| 20260506014019 | 16 | 195 | 6.4 | 22.5 | 0.00 | 0.18 | 0.00 | 73 | 1019.5 |
| 20260506013520 | 16 | 176 | 6.4 | 25.7 | 0.00 | 0.18 | 0.00 | 72 | 1019.5 |
| 20260506013026 | 16 | 190 | 9.7 | 25.7 | 0.00 | 0.18 | 0.00 | 71 | 1019.4 |
| 20260506012520 | 16 | 182 | 3.2 | 19.3 | 0.00 | 0.18 | 0.00 | 71 | 1019.4 |
| 20260506012019 | 16 | 213 | 9.7 | 24.1 | 0.00 | 0.18 | 0.00 | 70 | 1019.3 |
| 20260506011520 | 16 | 209 | 6.4 | 24.1 | 0.00 | 0.18 | 0.00 | 69 | 1019.3 |
| 20260506011019 | 17 | 186 | 8.0 | 19.3 | 0.00 | 0.18 | 0.00 | 68 | 1019.3 |
| 20260506010519 | 17 | 201 | 6.4 | 19.3 | 0.00 | 0.18 | 0.00 | 68 | 1019.3 |
| 20260506010025 | 17 | 191 | 3.2 | 22.5 | 0.00 | 0.18 | 0.00 | 68 | 1019.2 |
| 20260506005520 | 17 | 224 | 9.7 | 22.5 | 0.00 | 0.18 | 0.00 | 68 | 1019.2 |
| 20260506005019 | 17 | 198 | 8.0 | 20.9 | 0.00 | 0.18 | 0.00 | 68 | 1019.3 |
| 20260506004528 | 17 | 195 | 8.0 | 20.9 | 0.00 | 0.18 | 0.00 | 67 | 1019.3 |
| 20260506004018 | 17 | 199 | 6.4 | 19.3 | 0.00 | 0.18 | 0.00 | 66 | 1019.3 |
| 20260506003518 | 17 | 199 | 4.8 | 20.9 | 0.00 | 0.18 | 0.00 | 66 | 1019.2 |
| 20260506003018 | 18 | 249 | 3.2 | 14.5 | 0.00 | 0.18 | 0.00 | 66 | 1019.3 |
| 20260506002518 | 18 | 171 | 3.2 | 12.9 | 0.00 | 0.18 | 0.00 | 66 | 1019.2 |
| 20260506002018 | 18 | 176 | 4.8 | 17.7 | 0.00 | 0.18 | 0.00 | 65 | 1019.2 |
| 20260506001518 | 18 | 165 | 4.8 | 17.7 | 0.00 | 0.18 | 0.00 | 64 | 1019.2 |
| 20260506001018 | 19 | 192 | 6.4 | 17.7 | 0.00 | 0.18 | 0.00 | 62 | 1019.2 |
| 20260506000519 | 19 | 219 | 4.8 | 14.5 | 0.00 | 0.18 | 0.00 | 61 | 1019.2 |
| 20260506000022 | 19 | 320 | 0.0 | 11.3 | 0.00 | 0.18 | 0.00 | 61 | 1019.2 |
| 20260505235519 | 19 | 287 | 0.0 | 9.7 | 0.00 | 0.18 | 0.00 | 60 | 1019.2 |
| 20260505235019 | 20 | 184 | 3.2 | 12.9 | 0.00 | 0.18 | 0.00 | 60 | 1019.2 |
| 20260505234520 | 20 | 217 | 1.6 | 12.9 | 0.00 | 0.18 | 0.00 | 59 | 1019.2 |
| 20260505234019 | 20 | 242 | 0.0 | 8.0 | 0.00 | 0.18 | 0.00 | 60 | 1019.2 |
| 20260505233518 | 20 | 301 | 0.0 | 6.4 | 0.00 | 0.18 | 0.00 | 59 | 1019.2 |
| 20260505233018 | 20 | 304 | 0.0 | 6.4 | 0.00 | 0.18 | 0.00 | 59 | 1019.3 |
| 20260505232518 | 20 | 313 | 0.0 | 0.0 | 0.00 | 0.18 | 0.00 | 60 | 1019.3 |
| 20260505232017 | 20 | 318 | 0.0 | 0.0 | 0.00 | 0.18 | 0.00 | 60 | 1019.3 |
| 20260505231518 | 20 | 318 | 0.0 | 4.8 | 0.00 | 0.18 | 0.00 | 59 | 1019.3 |
| 20260505231021 | 20 | 326 | 0.0 | 4.8 | 0.00 | 0.18 | 0.00 | 58 | 1019.4 |
| 20260505230521 | 20 | 326 | 0.0 | 4.8 | 0.00 | 0.18 | 0.00 | 58 | 1019.4 |
| 20260505230017 | 21 | 321 | 0.0 | 6.4 | 0.00 | 0.18 | 0.00 | 56 | 1019.5 |
| 20260505225517 | 21 | 332 | 0.0 | 8.0 | 0.00 | 0.18 | 0.00 | 55 | 1019.5 |
| 20260505225017 | 21 | 334 | 0.0 | 8.0 | 0.00 | 0.18 | 0.00 | 55 | 1019.5 |
| 20260505224526 | 20 | 88 | 0.0 | 0.0 | 0.00 | 0.18 | 0.00 | 55 | 1019.6 |
| 20260505224018 | 20 | 89 | 0.0 | 0.0 | 0.00 | 0.18 | 0.00 | 56 | 1019.7 |
| 20260505223518 | 20 | 89 | 0.0 | 3.2 | 0.00 | 0.18 | 0.00 | 54 | 1019.7 |
| 20260505223018 | 21 | 88 | 0.0 | 4.8 | 0.00 | 0.18 | 0.00 | 52 | 1019.8 |
| 20260505222516 | 21 | 88 | 0.0 | 4.8 | 0.00 | 0.18 | 0.00 | 51 | 1019.9 |
| 20260505222016 | 21 | 197 | 0.0 | 3.2 | 0.00 | 0.18 | 0.00 | 53 | 1019.9 |
| 20260505221516 | 21 | 213 | 0.0 | 6.4 | 0.00 | 0.18 | 0.00 | 53 | 1020.0 |
| 20260505221015 | 21 | 273 | 0.0 | 1.6 | 0.00 | 0.18 | 0.00 | 53 | 1020.0 |
| 20260505220514 | 21 | 273 | 0.0 | 1.6 | 0.00 | 0.18 | 0.00 | 52 | 1020.0 |
| 20260505220026 | 21 | 273 | 0.0 | 1.6 | 0.00 | 0.18 | 0.00 | 53 | 1020.0 |
| 20260505215516 | 21 | 273 | 0.0 | 4.8 | 0.00 | 0.18 | 0.00 | 55 | 1020.1 |
| 20260505215012 | 20 | 273 | 0.0 | 4.8 | 0.00 | 0.18 | 0.00 | 55 | 1020.1 |
| 20260505214516 | 20 | 279 | 0.0 | 3.2 | 0.00 | 0.18 | 0.00 | 54 | 1020.3 |
| 20260505214011 | 20 | 279 | 0.0 | 3.2 | 0.00 | 0.18 | 0.00 | 54 | 1020.3 |
| 20260505213510 | 20 | 279 | 0.0 | 3.2 | 0.00 | 0.18 | 0.00 | 54 | 1020.4 |
| 20260505213009 | 20 | 279 | 0.0 | 4.8 | 0.00 | 0.18 | 0.00 | 54 | 1020.4 |
| 20260505212509 | 20 | 279 | 0.0 | 4.8 | 0.00 | 0.18 | 0.00 | 56 | 1020.4 |
| 20260505212008 | 19 | 278 | 0.0 | 4.8 | 0.00 | 0.18 | 0.00 | 56 | 1020.4 |
| 20260505211507 | 19 | 272 | 0.0 | 6.4 | 0.00 | 0.18 | 0.00 | 56 | 1020.4 |
| 20260505211009 | 18 | 265 | 0.0 | 3.2 | 0.00 | 0.25 | 0.00 | 58 | 1020.6 |
| 20260505210508 | 18 | 265 | 0.0 | 3.2 | 0.00 | 0.25 | 0.00 | 58 | 1020.6 |
| 20260505210007 | 18 | 265 | 0.0 | 4.8 | 0.00 | 0.25 | 0.00 | 61 | 1020.7 |
| 20260505205511 | 17 | 265 | 0.0 | 4.8 | 0.00 | 0.25 | 0.00 | 62 | 1020.8 |
| 20260505205009 | 17 | 265 | 0.0 | 3.2 | 0.00 | 0.25 | 0.00 | 62 | 1020.7 |
| 20260505204514 | 17 | 265 | 0.0 | 4.8 | 0.00 | 0.25 | 0.00 | 61 | 1020.7 |
| 20260505204004 | 17 | 266 | 0.0 | 4.8 | 0.00 | 0.25 | 0.00 | 64 | 1020.7 |
| 20260505203503 | 17 | 266 | 0.0 | 6.4 | 0.00 | 0.25 | 0.00 | 66 | 1020.7 |
| 20260505203004 | 17 | 266 | 0.0 | 8.0 | 0.00 | 0.25 | 0.00 | 67 | 1020.8 |
| 20260505202504 | 17 | 261 | 0.0 | 8.0 | 0.00 | 0.25 | 0.00 | 66 | 1020.9 |
| 20260505202004 | 17 | 254 | 0.0 | 8.0 | 0.00 | 0.25 | 0.00 | 67 | 1020.9 |
| 20260505201503 | 17 | 247 | 0.0 | 8.0 | 0.00 | 0.33 | 0.00 | 67 | 1020.9 |
| 20260505201003 | 17 | 195 | 0.0 | 14.5 | 0.00 | 0.33 | 0.00 | 67 | 1021.0 |
| 20260505200503 | 17 | 192 | 0.0 | 14.5 | 0.00 | 0.33 | 0.00 | 67 | 1020.9 |
| 20260505200004 | 17 | 192 | 4.8 | 14.5 | 0.00 | 0.33 | 0.00 | 66 | 1021.0 |
| 20260505195501 | 17 | 76 | 1.6 | 8.0 | 0.00 | 0.33 | 0.00 | 64 | 1020.9 |
| 20260505195100 | 17 | 74 | 0.0 | 6.4 | 0.00 | 0.33 | 0.00 | 65 | 1021.0 |
| 20260505194603 | 17 | 72 | 0.0 | 8.0 | 0.00 | 0.33 | 0.00 | 67 | 1021.0 |
| 20260505194102 | 17 | 70 | 3.2 | 9.7 | 0.00 | 0.33 | 0.00 | 65 | 1021.0 |
| 20260505193631 | 17 | 83 | 3.2 | 9.7 | 0.00 | 0.33 | 0.00 | 65 | 1021.1 |
| 20260505193057 | 17 | 71 | 0.0 | 8.0 | 0.00 | 0.33 | 0.00 | 66 | 1021.1 |
| 20260505192601 | 17 | 96 | 0.0 | 8.0 | 0.00 | 0.33 | 0.00 | 66 | 1021.1 |
| 20260505192055 | 16 | 107 | 1.6 | 12.9 | 0.00 | 0.33 | 0.00 | 69 | 1021.1 |
| 20260505191603 | 16 | 92 | 3.2 | 12.9 | 0.00 | 0.33 | 0.00 | 66 | 1021.1 |
| 20260505191054 | 16 | 97 | 1.6 | 11.3 | 0.00 | 0.33 | 0.00 | 68 | 1021.1 |
| 20260505190112 | 16 | 100 | 8.0 | 14.5 | 0.00 | 0.33 | 0.00 | 68 | 1021.2 |
| 20260505185556 | 16 | 94 | 3.2 | 12.9 | 0.00 | 0.33 | 0.00 | 69 | 1021.2 |
| 20260505185055 | 16 | 99 | 3.2 | 11.3 | 0.00 | 0.33 | 0.00 | 69 | 1021.2 |
| 20260505184607 | 16 | 96 | 4.8 | 11.3 | 0.00 | 0.33 | 0.00 | 67 | 1021.2 |
| 20260505184055 | 16 | 107 | 1.6 | 9.7 | 0.00 | 0.33 | 0.00 | 69 | 1021.2 |
| 20260505183553 | 16 | 109 | 3.2 | 9.7 | 0.00 | 0.33 | 0.00 | 68 | 1021.2 |
| 20260505183054 | 16 | 101 | 1.6 | 9.7 | 0.00 | 0.33 | 0.00 | 68 | 1021.2 |
| 20260505182551 | 15 | 109 | 3.2 | 9.7 | 0.00 | 0.33 | 0.00 | 71 | 1021.2 |
| 20260505182054 | 15 | 92 | 1.6 | 9.7 | 0.00 | 0.33 | 0.00 | 68 | 1021.3 |
| 20260505181551 | 15 | 92 | 1.6 | 9.7 | 0.00 | 0.33 | 0.00 | 69 | 1021.3 |
| 20260505181055 | 15 | 90 | 1.6 | 9.7 | 0.00 | 0.33 | 0.00 | 69 | 1021.2 |
| 20260505180051 | 15 | 89 | 0.0 | 9.7 | 0.00 | 0.33 | 0.00 | 69 | 1021.2 |
| 20260505175548 | 15 | 82 | 0.0 | 6.4 | 0.00 | 0.33 | 0.00 | 69 | 1021.2 |
| 20260505175047 | 15 | 86 | 0.0 | 8.0 | 0.00 | 0.33 | 0.00 | 71 | 1021.2 |
| 20260505174546 | 15 | 128 | 0.0 | 4.8 | 0.00 | 0.33 | 0.00 | 71 | 1021.1 |
| 20260505174043 | 14 | 263 | 0.0 | 0.0 | 0.00 | 0.33 | 0.00 | 73 | 1021.1 |
| 20260505173542 | 13 | 263 | 0.0 | 0.0 | 0.00 | 0.33 | 0.00 | 73 | 1021.1 |
| 20260505173044 | 13 | 276 | 0.0 | 0.0 | 0.00 | 0.33 | 0.00 | 74 | 1021.1 |
| 20260505172541 | 13 | 276 | 0.0 | 1.6 | 0.00 | 0.33 | 0.00 | 75 | 1021.1 |
| 20260505172039 | 13 | 275 | 0.0 | 1.6 | 0.00 | 0.33 | 0.00 | 77 | 1021.1 |
| 20260505171542 | 12 | 275 | 0.0 | 0.0 | 0.00 | 0.33 | 0.00 | 78 | 1021.1 |
| 20260505171037 | 12 | 275 | 0.0 | 3.2 | 0.00 | 0.33 | 0.00 | 79 | 1021.1 |
| 20260505170505 | 12 | 282 | 0.0 | 0.0 | 0.00 | 0.33 | 0.00 | 79 | 1021.1 |
| 20260505170005 | 12 | 292 | 0.0 | 0.0 | 0.00 | 0.33 | 0.00 | 79 | 1021.1 |
| 20260505165501 | 11 | 231 | 0.0 | 1.6 | 0.00 | 0.33 | 0.00 | 81 | 1021.1 |
| 20260505165100 | 11 | 215 | 0.0 | 8.0 | 0.00 | 0.33 | 0.00 | 82 | 1021.1 |
| 20260505164602 | 11 | 284 | 0.0 | 8.0 | 0.00 | 0.33 | 0.00 | 81 | 1021.0 |
| 20260505164059 | 11 | 226 | 0.0 | 4.8 | 0.00 | 0.33 | 0.00 | 82 | 1021.0 |
| 20260505163558 | 11 | 298 | 0.0 | 6.4 | 0.00 | 0.33 | 0.00 | 82 | 1021.1 |
| 20260505163109 | 11 | 300 | 0.0 | 8.0 | 0.00 | 0.33 | 0.00 | 83 | 1021.1 |
| 20260505162557 | 11 | 191 | 1.6 | 8.0 | 0.00 | 0.33 | 0.00 | 83 | 1021.1 |
| 20260505162056 | 10 | 199 | 0.0 | 8.0 | 0.00 | 0.33 | 0.00 | 85 | 1021.1 |
| 20260505161555 | 10 | 199 | 1.6 | 8.0 | 0.00 | 0.33 | 0.00 | 84 | 1021.0 |
| 20260505161057 | 10 | 192 | 0.0 | 8.0 | 0.00 | 0.33 | 0.00 | 85 | 1021.0 |
| 20260505153018 | 10 | 228 | 1.6 | 14.5 | 0.00 | 0.33 | 0.00 | 87 | 1020.7 |
| 20260505152510 | 10 | 197 | 4.8 | 12.9 | 0.00 | 0.33 | 0.00 | 87 | 1020.7 |
| 20260505152015 | 10 | 233 | 0.0 | 14.5 | 0.00 | 0.33 | 0.00 | 87 | 1020.6 |
| 20260505151510 | 9 | 199 | 1.6 | 12.9 | 0.00 | 0.33 | 0.00 | 87 | 1020.6 |